This demonstration page uses our WeatherBlox Daily Observations layout. Learn more.

Left ArrowRight Arrow

Hourly Observations for June 30, 2019

Temp ( °F °C ) Dew Point ( °F °C ) Humidity (%) Winds ( mph kmh ) Pressure ( in mb ) Visibility ( mi km ) Precip ( " mm )
12:56 am 00:56 Clear 84 29 75 24 74 74 S 9 15 30.00 1016 10 16 0.00 0.00
1:56 am 01:56 Clear 82 28 73 23 74 74 S 9 15 30.02 1017 9 14 0.00 0.00
2:56 am 02:56 Mostly Clear 81 27 75 24 84 84 S 7 11 30.03 1017 8 13 0.00 0.00
3:56 am 03:56 Mostly Clear 79 26 73 23 84 84 SSW 3 6 30.03 1017 8 13 0.00 0.00
4:56 am 04:56 Mostly Clear 79 26 73 23 84 84 S 5 7 30.02 1017 9 14 0.00 0.00
5:56 am 05:56 Mostly Sunny 77 25 73 23 89 89 SSW 5 7 30.01 1016 8 13 0.00 0.00
6:56 am 06:56 Mostly Cloudy 81 27 75 24 84 84 S 5 7 30.02 1016 10 16 0.00 0.00
7:56 am 07:56 Partly Cloudy 84 29 73 23 70 70 Calm 29.97 1015 7 11 0.00 0.00
8:56 am 08:56 Sunny 84 29 72 22 66 66 SSW 5 7 29.97 1015 7 11 0.00 0.00
9:57 am 09:57 Sunny 88 31 77 25 70 70 undefined N/A 30.02 1017 7 11 0.00 0.00
10:56 am 10:56 Mostly Sunny 91 33 73 23 56 56 SSW 10 17 29.93 1014 7 11 0.00 0.00
11:56 am 11:56 Sunny 93 34 70 21 47 47 SSW 12 19 29.92 1013 7 11 0.00 0.00
12:56 pm 12:56 Mostly Sunny 95 35 70 21 44 44 S 10 17 29.91 1013 10 16 0.00 0.00
1:56 pm 13:56 Mostly Sunny 97 36 70 21 42 42 SSW 14 22 29.90 1012 7 11 0.00 0.00
2:56 pm 14:56 Mostly Sunny 97 36 70 21 42 42 SW 14 22 29.88 1012 10 16 0.00 0.00
3:56 pm 15:56 Mostly Sunny 97 36 68 20 39 39 SSW 14 22 29.87 1011 10 16 0.00 0.00
4:56 pm 16:56 Sunny 97 36 68 20 39 39 S 13 20 29.84 1011 10 16 0.00 0.00
5:56 pm 17:56 Sunny 97 36 66 19 37 37 S 13 20 29.84 1011 10 16 0.00 0.00
6:56 pm 18:56 Mostly Sunny 95 35 68 20 41 41 S 10 17 29.85 1011 10 16 0.00 0.00
7:56 pm 19:56 Sunny 91 33 68 20 46 46 S 5 7 29.87 1011 10 16 0.00 0.00
8:56 pm 20:56 Sunny 90 32 72 22 55 55 S 5 7 29.88 1012 10 16 0.00 0.00
9:56 pm 21:56 Clear 86 30 73 23 66 66 SSE 9 15 29.88 1012 10 16 0.00 0.00
10:56 pm 22:56 Clear 86 30 72 22 62 62 S 7 11 29.92 1013 10 16 0.00 0.00
11:56 pm 23:56 Clear 82 28 72 22 70 70 SSW 8 13 29.92 1013 10 16 0.00 0.00

Powered by AerisWeather